{"data":{"norad_id":49099,"epoch":"2026-05-25T02:34:25.351104Z","epoch_age_seconds":68858,"freshness":"FRESH","line1":"1 49099U 21075AA  26145.10723786 -.00000015  00000+0 -71603-4 0  9996","line2":"2 49099  87.9151  10.4699 0001916  86.8036 273.3315 13.17650611230551","mean_motion":13.17650611,"eccentricity":0.0001916,"inclination_deg":87.9151,"raan_deg":10.4699,"arg_perigee_deg":86.8036,"mean_anomaly_deg":273.3315,"bstar":-7.1603e-5,"rev_number":23055,"period_min":109.28541966881,"perigee_km":1192.2563228178,"apogee_km":1195.1578534723,"semimajor_km":7571.8440881451,"source":"CELESTRAK","updated_at":"2026-05-25T13:38:22.486077Z"}}